Theta_e
294 293 293 293 292 291 291 291 291 291 293 293 288 287 289 289 282 282 290 294 292 294 297 298 298 298 297 298 298 299 299 299 298 297 297 297 297 297 298 299 299 300 300 301 303 304 305 308 313 316 317 317 317 318 318 318 317 317 316 316 316 316 314 315 315 315 315 314 315 316 317 316 315 316 317 315 315 314 313 312 315 315 316 316 316 315 315
292 293 292 295 292 291 291 290 291 291 291 290 292 292 292 290 288 292 292 291 289 292 292 293 293 294 294 295 296 296 296 295 294 293 293 293 294 295 295 296 297 298 298 299 299 300 301 302 304 309 315 316 316 316 317 317 317 318 316 315 315 315 314 313 313 314 314 314 315 315 315 316 314 315 316 315 315 314 314 314 315 316 316 316 315 315 314
288 291 293 295 293 290 288 289 289 291 292 291 292 292 292 292 291 292 291 289 287 293 293 293 294 295 295 294 293 293 293 294 293 292 292 292 293 294 295 295 296 297 297 298 298 298 300 301 302 303 305 314 317 317 317 316 316 317 317 315 315 315 314 314 314 315 314 314 313 313 313 312 313 314 315 314 313 314 314 315 315 315 315 315 314 314 314
283 290 291 291 291 290 288 286 287 287 287 287 287 287 291 290 288 289 289 286 285 291 294 293 293 293 292 291 291 291 292 292 292 291 291 292 292 293 294 295 296 296 296 296 297 298 299 300 301 302 303 307 312 314 316 317 317 317 315 315 315 315 315 315 315 315 315 315 314 313 313 313 312 314 312 313 313 313 314 314 315 314 314 314 314 314 314
282 288 289 289 288 287 284 284 286 287 287 289 291 291 292 292 291 288 286 285 291 293 295 292 291 291 290 290 291 291 292 292 292 292 292 292 292 293 294 295 296 296 297 297 297 298 298 299 300 301 303 304 307 312 314 316 317 315 315 315 315 314 314 315 315 314 315 315 314 312 312 311 311 311 311 313 313 313 313 313 314 314 314 313 312 312 312
283 286 287 285 282 278 279 289 292 291 287 288 287 286 288 290 291 286 290 291 294 294 292 290 289 290 290 290 291 293 293 292 293 293 294 294 293 294 294 295 296 296 297 298 298 298 299 299 300 301 302 302 302 304 306 312 316 317 317 316 315 314 314 314 313 313 313 313 313 313 311 311 311 311 310 309 309 309 311 311 313 312 310 311 311 311 311
283 284 284 282 277 279 289 293 291 293 292 290 288 289 289 290 290 291 290 291 291 293 294 293 292 292 293 293 292 292 293 293 292 292 293 294 295 295 295 295 296 297 297 298 298 298 298 299 299 300 301 302 302 302 302 302 301 303 306 309 310 313 313 313 312 312 312 311 312 313 312 312 311 311 310 307 309 308 311 311 311 311 311 310 310 310 310
284 283 281 275 277 287 290 291 291 292 291 288 289 287 290 291 291 291 288 290 290 290 291 292 293 292 293 293 294 294 295 295 293 292 291 293 294 295 296 296 296 297 298 298 298 298 300 299 299 299 299 301 301 300 300 299 298 299 299 300 300 301 301 304 309 311 311 310 309 309 309 310 310 309 307 309 309 306 307 307 307 307 308 307 308 309 308
280 281 280 281 286 286 287 286 287 286 284 285 282 282 286 292 292 292 290 289 289 289 290 291 292 292 291 289 290 294 295 295 295 295 295 295 295 296 296 297 297 298 299 299 299 299 299 299 299 299 299 299 299 299 299 298 298 297 297 297 297 299 299 300 302 304 309 310 309 310 310 309 307 307 308 308 307 309 310 309 309 309 309 308 309 309 306
283 282 280 281 280 278 282 288 292 292 292 290 289 285 283 290 290 292 290 288 287 287 288 288 289 289 287 284 286 292 294 295 295 296 296 296 297 297 297 298 298 298 299 299 300 299 299 299 300 301 300 299 299 298 298 298 298 297 297 297 297 297 297 298 300 301 303 305 306 306 306 308 307 306 305 306 308 307 308 308 307 309 309 307 307 308 305
282 280 278 278 277 279 284 286 289 292 292 292 291 286 282 289 291 291 290 288 288 288 287 288 288 286 282 282 286 291 293 293 295 296 296 296 297 298 298 298 298 298 299 300 299 299 298 298 299 300 300 300 299 298 298 297 297 297 297 297 297 297 297 297 298 299 300 301 302 302 302 303 304 305 306 306 306 307 307 306 307 306 307 308 305 305 304
280 280 277 275 280 278 284 286 289 293 293 296 289 279 279 290 292 292 290 289 288 289 289 289 287 285 282 283 287 292 293 294 295 295 295 296 296 296 298 299 299 299 299 298 297 296 296 296 298 299 299 299 299 298 297 297 296 296 297 298 299 298 297 297 298 298 298 298 299 299 299 299 301 302 303 303 304 306 305 305 306 305 304 304 305 305 301
279 279 278 281 280 284 287 288 290 291 293 292 282 276 282 291 293 294 293 292 291 290 288 288 284 286 288 290 293 294 295 293 292 291 291 291 291 291 291 292 295 294 296 296 295 295 295 296 296 296 296 296 296 296 296 296 295 296 297 297 298 297 297 298 298 299 298 298 298 298 298 298 299 299 299 300 300 301 304 305 303 302 303 303 304 303 301
279 278 277 278 279 285 288 289 291 291 288 279 278 287 292 292 292 292 292 291 291 291 289 288 287 288 289 291 291 291 291 291 290 290 291 291 291 292 293 293 292 291 292 292 294 294 295 295 295 295 295 294 294 294 294 294 294 296 296 296 296 296 297 297 297 298 298 298 299 299 298 297 297 297 298 299 299 301 301 301 302 305 301 300 303 304 302
281 279 276 275 273 282 290 289 287 290 284 284 290 290 291 293 291 291 291 291 290 290 288 288 288 288 288 288 288 288 289 289 289 289 290 290 290 290 291 291 292 292 291 292 292 292 294 294 294 294 294 293 293 293 292 293 294 295 295 295 295 295 295 295 296 296 297 297 298 298 298 297 297 296 297 297 297 298 299 301 300 299 299 300 301 302 303
275 275 275 276 283 286 290 288 282 286 289 291 291 291 289 292 292 290 290 290 290 290 289 288 287 287 287 287 287 287 287 287 288 288 288 288 289 290 291 291 291 291 291 291 292 292 292 293 293 293 293 292 292 292 291 293 293 294 294 294 294 294 294 294 295 296 296 296 296 297 296 296 296 296 296 296 296 296 297 298 299 299 299 297 298 299 303
278 279 282 286 288 288 289 289 288 289 291 292 291 291 290 289 290 292 290 290 291 291 289 288 288 288 288 287 287 287 286 287 287 288 288 288 288 288 288 289 290 290 290 290 290 290 290 291 291 292 292 292 291 290 291 292 293 293 293 294 293 293 293 293 293 294 295 294 294 295 295 295 295 295 295 295 295 296 296 298 298 298 299 298 298 298 298
288 289 289 290 289 289 288 289 290 289 291 292 292 291 289 290 290 291 290 291 291 291 291 289 289 289 289 288 287 287 287 287 288 289 288 289 288 288 288 288 289 289 289 290 290 290 291 291 291 291 290 290 289 289 291 291 291 292 292 292 292 291 292 292 292 293 292 292 293 293 293 294 295 295 295 295 294 294 294 294 294 296 297 298 298 296 296
284 279 288 287 288 289 289 289 291 292 292 292 293 292 292 292 293 292 292 292 292 292 292 290 287 286 286 286 286 286 287 287 287 287 287 287 287 288 288 288 289 289 289 290 290 290 290 290 291 291 290 290 290 290 290 290 290 290 290 290 290 289 289 290 290 290 290 290 290 291 291 292 293 294 294 294 294 294 294 294 293 294 295 295 296 297 297
283 283 287 288 290 290 291 290 289 289 291 292 293 294 294 295 295 294 293 293 292 291 290 289 287 286 285 285 285 286 286 286 286 286 286 285 286 286 287 288 289 288 289 288 289 289 289 289 290 290 290 290 290 290 290 290 290 289 289 289 288 287 288 288 288 288 288 287 288 289 289 290 291 292 293 293 293 293 293 293 292 293 293 294 295 296 297
284 287 288 288 289 288 289 290 291 292 292 292 292 292 292 292 291 290 291 291 290 289 288 288 288 286 285 285 285 286 285 285 285 285 285 285 286 287 288 289 289 288 288 288 288 288 288 288 288 289 289 289 290 289 290 290 289 288 288 287 287 286 286 286 286 287 288 287 287 287 288 289 289 289 290 291 292 293 294 292 291 291 292 293 295 297 298
277 279 283 285 282 280 285 287 290 291 292 291 290 290 290 289 289 289 288 288 289 289 288 288 287 286 285 285 285 285 285 284 284 284 285 286 287 287 287 288 288 289 289 287 287 288 287 287 288 288 288 288 289 289 289 288 288 288 287 287 285 285 285 285 285 286 287 286 287 287 287 287 288 290 290 292 291 290 291 292 290 289 288 291 294 293 296
279 284 287 286 286 284 284 286 288 289 289 289 288 287 287 287 288 288 287 287 287 286 286 286 286 285 285 285 285 284 284 285 284 285 286 287 286 286 286 287 287 287 286 288 287 286 286 287 287 287 287 287 287 288 288 288 287 286 286 286 284 284 284 284 285 285 285 285 285 285 287 286 288 288 290 291 291 291 291 291 291 289 289 289 289 288 292
288 290 289 289 286 284 285 286 287 287 287 287 286 285 285 286 286 286 286 287 286 285 285 285 286 285 284 284 284 283 284 284 284 285 286 286 286 286 286 286 286 286 286 286 286 285 286 286 286 286 286 286 286 287 287 287 286 285 285 285 284 284 283 284 285 285 284 284 284 286 287 287 288 287 286 286 289 291 290 290 291 290 289 288 289 289 289
286 290 290 290 289 289 289 289 288 288 288 288 286 285 285 285 285 286 286 285 286 286 284 284 285 285 285 284 284 284 284 284 286 286 287 287 286 286 286 285 285 286 285 285 285 285 285 284 284 285 285 285 286 287 287 287 286 285 285 284 283 283 283 283 284 284 284 284 285 286 286 286 287 287 285 285 284 286 289 290 290 290 289 288 288 288 288
289 288 289 289 290 289 288 287 286 286 286 288 287 287 289 290 288 286 286 286 285 285 284 284 284 285 284 284 284 283 284 284 286 287 285 285 285 285 284 286 286 285 286 285 285 285 284 284 284 283 283 285 285 286 287 286 285 284 284 284 284 283 283 283 283 284 284 285 285 285 286 286 286 284 285 286 284 284 284 286 288 289 289 288 288 288 288
288 288 287 285 284 284 285 285 282 284 284 285 285 285 284 285 288 286 285 284 285 285 285 284 284 284 284 284 284 283 284 284 284 284 284 284 284 285 285 286 286 286 286 285 285 285 285 283 283 283 283 285 287 288 288 287 285 284 283 283 283 284 284 285 283 284 284 284 285 285 286 287 286 285 286 286 284 283 283 283 284 284 285 287 288 288 286
286 286 286 282 280 281 284 285 285 285 286 286 286 285 285 286 285 285 285 285 285 285 284 284 284 284 283 283 283 282 282 283 283 283 284 284 285 284 284 284 286 286 285 284 284 284 283 283 284 284 284 286 288 288 287 286 284 283 282 282 283 282 282 282 285 284 285 286 286 286 285 285 285 285 285 284 284 284 283 283 283 283 284 285 285 286 287
284 284 285 286 286 286 286 285 285 285 284 285 286 284 285 285 283 283 284 284 284 284 284 284 284 282 283 282 283 282 281 282 283 283 283 283 284 283 284 284 285 284 284 284 284 284 284 284 284 285 287 286 286 285 285 284 284 283 283 283 282 283 281 284 285 287 288 289 287 285 285 283 284 284 283 283 283 283 283 283 283 284 284 285 285 284 285
284 284 285 284 284 284 285 284 285 284 285 285 285 284 284 284 283 282 282 284 284 283 285 283 282 282 283 282 280 281 281 282 283 282 282 282 282 282 283 283 283 283 283 283 283 284 285 286 286 284 283 282 284 284 284 284 283 283 283 283 283 283 286 288 288 288 287 285 284 284 283 283 283 282 282 282 283 283 284 283 284 283 284 285 286 283 282
284 285 285 284 285 284 284 284 284 286 285 284 283 283 282 282 282 282 283 283 283 283 283 283 281 281 281 280 280 279 280 281 282 282 281 281 281 281 282 281 281 281 283 284 284 285 286 285 284 284 283 282 283 284 285 285 286 286 286 286 286 286 286 287 287 285 285 284 283 283 283 282 282 282 283 283 284 285 285 285 283 282 283 285 285 285 284
284 284 285 284 284 284 284 284 283 284 284 284 283 283 282 283 282 282 282 282 282 282 282 282 281 281 280 280 279 279 280 280 280 280 281 280 281 281 280 281 281 282 283 285 285 284 285 287 286 286 285 284 284 284 287 288 289 289 290 289 288 287 287 287 286 286 284 284 284 282 282 283 281 283 284 284 285 285 285 284 284 284 284 286 286 286 285
284 282 282 283 283 283 282 282 282 282 283 283 282 283 282 283 282 282 282 283 283 283 283 282 281 281 280 279 279 278 279 278 278 277 279 280 281 281 280 279 279 281 283 285 285 285 285 286 285 286 285 286 287 287 286 287 289 290 290 288 287 286 288 288 287 287 287 285 283 282 282 281 281 283 284 285 285 285 285 285 285 285 285 286 287 287 287
284 284 284 285 284 282 282 282 282 282 283 283 283 283 283 284 282 283 283 283 283 283 283 282 282 280 279 278 275 273 274 276 276 275 277 278 278 277 277 277 279 281 284 286 285 283 283 283 283 284 286 287 289 290 289 288 287 286 288 290 291 291 290 289 288 288 287 284 283 283 281 281 283 284 284 285 285 285 285 285 285 285 285 285 286 287 287
286 286 287 286 285 284 284 284 283 283 284 283 283 283 283 283 283 282 282 283 282 282 282 282 280 279 276 273 271 271 271 272 272 273 274 274 274 275 275 278 281 284 286 285 283 282 281 282 283 284 285 287 290 293 291 289 287 286 286 288 291 292 292 291 290 288 285 283 282 281 280 281 282 284 285 285 285 285 285 285 285 285 285 285 285 286 286
288 287 287 287 286 285 284 284 284 284 285 284 284 284 283 283 282 282 282 282 283 283 281 280 278 274 273 271 270 268 270 269 268 267 268 270 273 274 277 279 280 281 281 282 281 280 281 283 285 286 285 287 290 292 290 288 289 288 287 288 290 291 292 291 290 288 285 283 282 282 280 283 285 285 285 286 286 286 285 285 285 285 285 285 285 285 285
290 289 287 286 285 284 284 285 285 285 285 285 284 283 284 283 283 283 283 283 282 281 280 279 275 273 270 269 268 266 267 267 269 271 272 268 270 277 281 283 283 281 279 278 279 280 284 286 286 286 286 287 290 290 287 286 287 287 286 287 288 289 290 290 289 287 285 283 282 282 282 283 284 286 285 286 286 285 285 285 285 285 285 285 285 285 285
290 289 288 287 286 285 285 285 285 285 285 284 284 284 285 285 285 283 283 283 282 280 279 277 276 273 270 270 270 271 271 268 269 270 269 272 275 277 278 282 283 280 278 277 278 283 286 287 286 288 290 291 291 289 288 288 287 290 289 289 288 288 288 289 289 289 287 284 282 281 282 282 284 284 285 286 286 286 285 286 285 285 285 285 285 285 285
288 288 287 286 286 286 285 285 285 284 286 285 285 285 285 287 285 284 283 282 282 281 280 278 277 277 278 278 278 277 276 274 271 272 273 274 274 278 279 279 280 280 278 276 279 284 286 287 288 288 288 289 291 290 289 287 286 287 287 288 289 289 289 288 288 288 288 285 284 282 282 282 283 284 285 285 286 286 286 286 286 286 286 286 285 285 285
287 287 287 288 287 287 285 285 284 284 284 285 285 285 285 284 284 284 283 282 281 281 280 279 279 279 279 279 279 279 280 280 278 275 275 275 277 277 278 280 280 279 278 282 282 284 286 286 287 287 287 289 286 284 284 284 285 284 285 285 288 287 287 287 287 287 287 288 286 285 282 282 283 284 285 286 286 286 286 286 286 286 286 286 286 286 285
285 286 285 285 285 284 284 284 284 285 285 285 284 284 284 285 284 283 282 283 283 281 280 280 280 279 279 279 280 281 281 281 280 279 278 278 277 276 278 280 282 281 281 281 282 284 285 287 288 288 287 285 283 281 281 283 283 284 284 285 285 285 286 287 287 287 288 288 287 285 282 282 283 284 285 284 285 286 286 286 285 285 284 285 285 285 285
286 285 284 285 284 285 285 284 284 285 285 284 284 284 284 284 285 284 283 283 283 282 281 281 281 281 281 280 280 280 280 281 281 280 280 281 280 279 278 281 282 281 283 284 285 285 286 286 286 286 283 283 283 284 283 284 285 286 287 286 287 287 287 287 288 288 289 288 287 285 283 282 282 282 283 282 283 284 285 285 284 285 285 284 284 284 285
286 287 286 285 286 287 286 286 285 285 285 286 285 284 285 285 285 284 284 283 283 283 283 282 282 282 280 278 279 280 281 281 281 281 280 281 282 282 283 282 282 284 284 285 285 285 286 286 285 283 283 282 282 284 284 283 283 284 286 288 287 287 287 287 287 286 285 285 284 284 284 284 283 282 282 282 282 284 285 285 285 285 285 285 284 284 284
285 286 287 287 288 288 288 286 285 285 285 285 286 286 286 286 285 285 284 283 283 283 283 282 282 281 281 280 279 279 279 280 281 281 280 280 282 283 283 284 283 284 284 284 284 284 284 284 284 284 284 284 284 284 283 283 282 282 283 284 285 285 285 284 282 282 283 283 284 283 284 284 283 283 283 283 283 284 285 285 284 284 284 284 285 285 285
286 286 287 287 287 286 286 286 285 285 286 285 286 286 286 285 285 285 284 283 284 283 282 282 282 281 281 281 281 281 280 280 282 281 280 280 281 283 284 285 285 284 284 284 283 283 284 283 284 284 283 284 284 284 281 281 281 281 282 282 284 284 284 282 283 283 283 282 282 283 284 283 282 283 282 282 284 284 284 285 285 285 284 284 284 284 284
285 286 286 286 286 285 286 287 287 285 285 286 286 286 286 286 286 285 285 285 284 284 284 283 283 282 283 282 283 282 281 280 279 282 283 283 283 283 285 285 284 284 284 284 283 283 283 284 284 283 284 284 284 282 281 281 281 281 281 281 283 283 283 283 283 281 281 281 282 281 281 281 281 281 282 283 284 284 285 285 284 284 284 284 284 284 284
285 284 285 285 285 286 286 286 286 286 286 285 285 285 286 286 287 286 286 286 286 286 285 284 284 284 284 284 283 281 280 280 281 281 281 282 282 284 285 284 284 284 283 283 283 284 283 283 283 283 283 283 284 281 280 281 281 281 282 282 282 282 283 282 281 281 281 281 282 282 282 282 281 282 282 283 283 284 285 285 284 284 283 284 284 284 284
285 285 285 285 286 286 285 285 286 285 285 286 286 286 286 286 287 287 286 285 285 286 285 285 285 285 284 284 284 284 283 282 279 281 280 281 282 284 283 282 283 284 284 284 284 284 283 283 283 283 283 284 282 281 281 281 281 281 281 283 282 282 283 282 281 281 281 282 282 282 281 280 280 281 282 281 282 283 284 284 284 284 284 284 284 283 282
286 286 286 285 285 285 285 285 284 284 284 285 285 284 286 287 287 286 286 286 287 286 286 286 286 286 286 285 285 284 283 283 283 282 281 282 283 283 283 284 284 284 283 282 283 282 283 283 283 283 283 284 281 280 280 280 281 281 281 280 281 280 279 281 280 281 281 282 281 282 281 281 280 281 280 280 281 282 283 284 284 284 284 284 284 282 280
285 285 285 285 285 284 283 283 283 282 282 283 284 285 286 286 285 286 285 285 285 284 285 285 285 287 286 285 284 285 284 283 283 282 283 283 282 282 282 283 283 284 283 282 283 282 283 283 283 283 283 281 280 280 281 282 283 282 281 281 280 279 280 281 282 283 282 282 281 281 281 280 279 280 281 280 281 282 283 284 284 284 284 284 283 282 281
285 284 284 283 284 284 284 284 283 285 285 283 285 284 285 285 285 284 284 285 285 285 285 284 284 285 285 285 285 284 284 283 284 283 283 282 281 282 283 283 283 283 283 283 282 283 282 281 281 282 282 282 280 281 280 281 281 282 281 279 279 280 280 282 281 281 281 281 281 281 280 280 280 280 279 280 280 281 283 282 283 283 283 283 283 282 280
286 286 285 285 285 285 284 285 286 285 285 283 283 284 283 283 283 283 283 285 284 285 285 286 285 286 285 285 285 286 283 283 282 282 283 283 283 282 283 283 282 282 283 283 282 283 283 282 282 283 283 281 280 280 282 282 281 280 280 280 281 279 280 280 280 281 281 282 281 280 281 280 279 280 279 278 279 279 279 278 279 281 282 281 280 279 278
Wind_Speed
7 11 7 4 4 3 3 5 4 5 4 7 4 0 2 0 3 7 8 6 9 7 6 6 6 6 7 7 8 8 10 10 10 12 14 13 12 12 13 12 12 12 12 11 12 12 11 10 9 6 6 6 6 4 3 3 3 4 5 6 6 6 6 6 5 6 6 6 5 6 6 6 5 5 5 4 4 5 4 4 4 5 5 6 6 4 4
8 13 13 8 8 4 8 7 5 5 9 6 8 6 5 9 7 10 12 12 10 5 5 6 6 6 6 7 6 9 13 12 11 13 13 12 12 13 12 12 12 12 12 12 11 11 11 11 10 9 4 5 6 4 1 2 3 2 2 6 6 6 6 5 5 5 5 4 5 4 4 6 5 4 5 5 6 6 5 6 5 5 5 4 6 6 5
5 8 10 5 5 9 11 7 9 6 7 10 9 10 10 16 11 11 12 13 9 4 3 7 4 6 8 10 14 12 10 10 12 13 12 12 12 12 12 12 13 12 12 13 13 13 12 12 10 7 5 2 6 6 4 2 1 1 4 5 5 5 5 5 5 4 4 3 3 3 2 3 5 4 4 4 5 5 5 6 6 6 6 6 5 6 6
2 6 7 5 2 12 11 10 12 12 4 8 1 4 0 3 10 8 12 8 5 3 2 7 7 12 13 11 11 10 9 8 11 14 13 12 12 12 11 12 13 13 14 14 13 13 13 13 12 10 7 8 7 5 2 3 1 0 1 3 6 5 5 5 5 5 5 4 4 3 3 3 4 4 3 4 5 5 5 6 6 6 7 7 7 6 5
1 1 4 6 6 4 7 8 11 9 3 5 5 6 7 5 6 11 7 4 6 7 5 10 8 13 13 11 10 10 10 9 10 11 9 10 11 11 11 12 12 12 11 11 12 12 12 12 12 11 11 12 10 9 8 7 6 7 7 7 6 5 4 5 4 3 3 3 3 2 1 1 3 3 3 3 4 5 5 4 5 6 6 6 6 5 6
2 2 4 3 3 5 2 4 8 1 1 5 10 3 4 4 4 2 5 8 7 7 8 12 7 10 10 9 6 7 6 7 8 9 9 9 8 8 10 9 9 9 8 9 9 12 12 11 10 10 13 12 12 12 11 9 7 7 6 6 6 7 6 5 4 3 3 3 3 3 3 3 3 4 4 3 3 3 4 4 4 4 4 5 4 5 6
4 2 3 4 2 2 1 2 8 7 8 12 15 9 9 11 12 13 12 9 9 6 6 9 9 10 9 8 8 7 6 9 8 7 8 8 8 7 8 8 8 8 9 9 10 12 12 11 10 11 13 11 12 12 12 13 12 11 9 9 8 6 5 4 4 4 2 1 2 3 4 4 4 5 5 4 3 3 5 6 6 6 6 6 5 5 5
3 4 2 2 1 1 3 6 5 5 2 3 11 13 9 6 10 11 10 9 10 9 10 8 7 10 10 10 9 7 5 4 6 9 8 7 8 9 8 9 8 9 9 8 9 10 9 11 10 10 10 9 10 10 10 12 10 10 10 10 10 10 9 6 3 3 3 3 4 4 1 1 2 3 3 5 5 3 3 3 2 2 1 2 4 4 4
3 1 3 6 6 2 1 3 5 4 2 3 2 7 2 1 5 12 11 9 8 9 8 9 9 9 10 12 8 7 6 6 6 8 8 8 6 6 8 9 8 7 7 8 7 8 10 10 10 9 7 8 10 10 11 10 10 9 9 10 9 8 8 9 8 4 3 3 3 3 3 3 2 1 1 1 4 4 5 5 5 5 6 5 5 4 4
4 6 5 4 2 4 2 2 2 2 1 1 2 5 3 2 1 5 13 12 9 9 9 9 10 4 15 10 6 4 4 5 6 6 7 7 7 6 6 8 8 7 6 7 7 8 9 9 7 6 7 8 10 11 10 9 9 9 9 8 6 7 7 7 8 9 8 6 3 2 2 2 2 2 2 2 1 1 3 5 4 5 5 4 4 4 5
3 2 4 2 3 1 1 4 6 5 2 4 1 5 4 1 6 4 11 11 8 9 10 8 1 6 8 5 4 3 3 2 2 5 5 7 7 6 6 6 7 8 7 6 5 7 8 9 7 8 9 11 11 11 10 10 10 11 9 8 7 7 7 6 6 6 7 7 8 8 8 8 5 3 2 1 1 1 1 2 3 3 3 5 4 4 5
2 2 3 2 0 1 1 4 6 6 3 3 1 3 4 4 8 8 9 12 10 6 4 3 1 9 11 7 5 5 5 3 2 4 4 2 2 2 3 3 5 6 5 8 9 9 10 8 3 4 6 9 11 11 11 11 12 11 10 9 7 6 7 7 7 8 7 7 7 7 7 7 7 8 7 6 3 1 2 1 1 1 2 3 4 4 4
5 7 2 2 1 2 2 4 7 6 3 1 4 5 4 4 7 7 6 8 6 5 4 3 7 5 5 7 6 5 4 4 2 3 3 4 5 8 7 5 3 5 8 8 8 7 7 7 8 7 8 10 10 10 10 12 11 9 8 8 8 8 7 9 9 9 9 9 9 9 9 7 6 6 7 7 7 4 3 5 2 2 3 3 3 4 3
3 1 5 2 1 1 4 6 5 3 2 2 5 0 1 4 7 6 8 10 9 10 10 11 9 9 9 11 11 11 10 9 6 5 6 7 9 7 7 8 7 6 7 7 8 9 8 8 7 7 8 10 8 8 9 9 6 4 6 7 8 9 10 9 9 10 10 9 8 8 9 10 10 9 9 7 5 5 4 3 4 5 4 4 5 5 4
2 3 3 3 1 1 8 10 3 4 4 0 1 5 8 10 11 12 10 11 10 14 11 10 10 10 9 9 9 8 8 9 8 7 8 8 8 8 8 9 7 6 7 7 7 5 5 6 6 5 7 8 6 6 8 5 4 5 6 7 7 8 9 10 9 9 8 10 9 8 9 9 9 9 8 9 8 6 6 6 6 4 3 4 6 6 6
2 2 2 1 2 5 9 1 4 2 4 4 4 9 9 8 9 11 10 8 8 11 12 10 10 9 9 7 7 8 7 6 6 6 5 5 5 6 6 5 5 5 5 5 5 4 4 4 4 5 7 7 7 8 8 4 4 4 6 6 7 8 8 8 9 9 9 9 8 8 9 8 8 9 9 8 8 7 7 6 6 4 7 1 1 3 6
1 2 4 2 0 3 5 7 8 8 9 9 9 11 9 9 8 6 11 10 8 9 11 9 8 8 7 7 6 8 5 6 6 6 5 5 5 4 4 4 4 4 4 4 4 4 4 4 4 6 7 9 10 11 10 9 10 9 6 6 7 9 9 9 10 9 10 10 10 9 9 8 8 8 7 8 8 10 9 8 8 7 3 3 2 3 5
11 9 5 4 5 8 10 9 9 11 11 10 11 12 12 9 8 7 8 8 8 8 7 9 7 7 6 8 7 7 6 6 4 4 5 5 4 4 5 5 5 4 4 4 5 8 10 10 9 9 9 9 9 5 6 8 8 9 10 10 10 10 10 10 11 11 12 11 11 11 11 9 8 7 7 7 6 5 6 7 7 7 7 3 2 1 3
3 5 1 7 8 7 8 10 9 8 8 8 8 10 10 10 10 10 9 8 8 8 8 8 6 4 4 6 5 5 5 5 4 4 5 4 4 4 4 4 4 5 5 7 9 9 9 7 8 8 8 7 6 5 6 6 7 7 8 9 9 9 9 9 9 9 9 8 8 9 9 9 8 8 8 8 9 9 7 8 7 7 7 8 7 4 6
5 5 4 4 5 6 6 7 8 9 8 9 9 8 8 9 8 8 7 6 6 5 7 7 8 6 5 7 5 5 4 4 5 5 5 4 5 4 4 6 7 8 9 8 7 7 7 5 5 6 6 6 6 5 5 6 6 7 7 7 7 6 7 6 6 6 6 8 8 7 7 7 7 8 7 7 7 7 7 7 7 8 6 7 8 8 8
5 6 4 6 8 7 5 5 5 6 7 9 9 8 8 7 8 7 6 6 5 4 5 5 8 9 6 6 6 6 4 4 4 4 4 5 7 7 8 7 8 7 5 6 5 6 5 4 4 6 6 6 6 7 6 5 6 7 6 5 5 5 5 5 6 4 5 4 4 5 5 6 5 4 5 6 5 6 3 1 3 5 6 6 7 6 6
4 4 6 5 7 2 2 4 6 6 6 8 8 7 9 8 8 8 8 7 6 6 6 6 8 9 6 6 6 6 4 4 3 4 6 7 7 6 4 6 6 6 5 4 4 4 3 3 5 6 6 6 6 6 5 5 5 7 5 5 5 4 3 4 3 4 5 5 4 5 5 5 7 7 4 3 5 4 6 8 5 8 6 5 6 6 6
5 4 6 3 7 6 3 3 2 5 5 8 10 9 7 6 6 7 8 8 8 8 5 4 8 6 8 6 6 5 3 3 4 5 8 7 5 4 4 5 5 4 3 3 3 4 3 4 5 5 5 5 5 5 5 4 4 4 4 4 4 3 3 3 3 3 2 3 3 3 4 4 4 4 9 9 6 7 9 11 9 8 8 10 10 8 5
7 7 6 5 4 6 3 4 4 5 6 10 8 5 6 6 6 6 7 8 9 5 5 5 5 7 6 5 6 5 2 2 6 6 5 5 4 4 3 4 4 4 3 4 4 4 4 4 5 4 5 4 4 4 4 4 4 4 4 4 3 3 2 2 3 4 3 2 3 3 4 4 3 5 5 6 11 12 10 9 13 9 4 7 9 10 9
5 4 6 8 9 7 5 7 7 6 5 8 8 6 6 6 5 7 8 5 5 8 6 5 4 5 6 4 5 3 2 4 5 6 5 4 4 4 4 4 3 2 3 4 4 4 4 4 4 4 4 4 4 4 4 4 3 4 4 3 3 4 3 3 3 3 3 3 3 3 3 3 5 5 5 5 6 8 13 12 9 11 8 4 7 8 9
7 8 9 8 8 6 5 7 6 4 4 6 5 2 2 4 6 7 8 8 6 6 7 5 4 2 4 4 3 3 7 5 4 5 5 4 3 4 4 2 2 4 5 4 4 4 4 4 4 4 3 3 3 4 4 4 3 3 3 3 2 2 2 2 3 3 3 3 3 4 2 3 3 3 4 4 5 5 6 9 11 9 9 7 8 9 6
7 9 12 11 9 5 4 7 3 3 5 4 6 4 4 5 6 6 4 4 5 6 7 5 5 3 3 1 3 5 8 5 5 4 3 3 3 3 2 1 4 6 5 4 4 4 4 3 3 3 3 2 2 3 3 3 3 4 4 4 4 5 6 4 3 4 3 4 5 3 5 5 5 3 3 3 3 3 5 5 7 8 7 9 8 7 6
6 5 7 8 5 4 3 5 6 6 7 8 6 6 5 7 7 7 7 6 4 3 4 4 5 3 3 4 7 5 5 6 5 4 4 2 0 0 1 4 5 5 4 4 3 2 2 1 1 1 2 2 0 0 2 3 3 4 4 3 3 4 4 3 5 4 5 4 3 4 4 4 4 3 3 3 4 4 4 4 5 6 7 7 6 6 8
5 5 5 6 6 5 4 4 7 6 5 4 5 5 6 8 5 4 3 2 3 4 4 3 2 3 6 4 6 6 5 4 5 4 3 2 2 2 3 5 4 4 4 3 1 1 2 2 2 3 3 3 2 2 2 2 2 3 4 3 3 4 3 4 3 4 4 3 3 4 4 4 4 5 4 4 4 4 4 5 5 6 6 7 7 6 4
4 5 6 5 4 5 4 5 7 5 6 6 7 4 5 7 5 2 3 1 3 4 2 3 5 5 5 6 4 6 6 5 5 4 3 2 2 2 2 2 4 3 3 3 3 3 2 3 3 3 3 2 2 2 2 2 3 3 4 3 2 1 3 2 2 2 2 3 3 4 5 4 4 4 5 5 5 5 6 5 6 6 7 7 5 3 4
5 5 7 5 6 5 5 4 5 5 5 4 5 5 3 5 5 4 4 3 4 5 4 5 5 5 5 5 4 4 4 4 4 4 3 3 2 2 2 2 3 2 2 1 2 3 3 3 3 3 4 3 3 3 2 2 3 3 3 3 3 4 3 3 2 1 1 2 3 4 4 4 4 5 5 6 6 6 6 5 6 6 6 5 4 5 4
7 6 6 5 5 7 5 5 5 4 2 2 5 5 5 6 4 4 4 4 4 6 7 6 5 5 4 4 4 4 4 4 4 3 3 3 2 1 2 2 2 2 0 2 1 3 2 3 3 4 4 4 4 3 3 4 3 3 2 2 3 3 4 2 1 1 0 2 3 3 3 4 5 5 5 5 6 6 5 6 6 6 6 6 6 5 4
7 5 5 6 5 5 5 2 5 5 6 5 5 5 4 4 4 4 4 5 5 4 6 5 5 4 4 3 4 4 4 4 3 3 3 2 1 0 0 0 0 0 2 3 3 2 1 2 3 4 4 4 4 3 2 3 3 2 2 3 3 3 2 2 3 2 3 3 1 1 2 3 3 4 4 5 5 5 6 6 6 6 5 5 5 5 5
9 8 8 6 7 6 5 3 2 4 3 2 4 4 4 4 4 4 5 5 6 5 6 6 5 4 4 3 3 4 4 4 2 1 1 1 1 1 1 0 0 1 3 2 2 1 2 3 3 3 4 5 5 3 2 1 0 1 2 2 2 4 4 3 5 3 4 2 1 1 3 2 4 4 5 5 5 5 6 6 5 6 6 6 6 6 8
6 6 6 7 5 5 5 6 6 5 6 5 3 4 4 3 3 3 4 7 6 5 4 5 5 4 3 3 3 3 3 4 4 4 3 3 2 1 1 1 1 1 1 1 2 1 2 3 3 3 4 4 4 2 2 2 1 1 1 2 4 4 2 4 3 3 3 2 1 2 2 3 4 4 4 4 5 5 5 5 6 6 5 6 6 6 6
9 7 6 6 5 5 5 4 5 8 7 6 6 5 4 4 4 5 6 5 4 5 5 5 4 4 3 4 2 2 1 2 3 3 3 3 3 1 0 0 0 1 2 3 3 3 3 3 4 5 3 4 4 2 2 2 2 0 0 1 3 1 1 1 2 3 2 2 2 1 1 3 4 4 4 4 4 4 5 6 6 5 5 5 5 6 6
7 7 5 4 4 4 4 4 6 7 7 6 5 4 4 4 5 5 5 6 6 6 6 5 4 4 4 4 3 2 2 3 4 4 5 3 1 1 1 1 1 3 2 3 3 2 2 2 5 6 4 3 3 2 2 2 1 0 1 0 1 1 2 1 1 2 2 2 3 1 1 3 2 3 4 4 4 4 5 5 5 5 5 5 6 6 6
8 9 7 6 5 5 4 4 4 6 6 5 4 4 5 5 5 6 6 6 6 6 6 5 5 4 3 3 2 2 3 4 4 4 4 3 2 2 1 2 4 2 3 5 2 2 2 3 5 4 3 3 2 2 2 3 5 4 1 1 1 1 0 0 1 1 2 3 2 2 2 3 3 3 3 3 4 5 5 5 5 5 6 5 5 6 5
3 2 4 4 4 4 3 2 3 4 7 7 5 5 4 5 5 7 7 6 6 5 5 4 4 4 4 4 4 3 4 5 5 5 4 4 3 4 6 6 7 7 6 3 2 3 2 3 2 2 2 2 2 2 3 4 5 4 4 3 2 3 2 2 2 2 1 3 4 3 2 3 3 2 2 3 4 4 5 6 6 5 5 5 6 6 6
6 4 5 5 5 5 4 3 3 3 4 5 7 5 4 5 5 7 6 5 5 5 5 4 4 5 4 4 4 5 6 6 5 5 5 4 3 3 4 6 6 5 5 4 3 3 3 4 2 2 1 0 1 1 2 3 4 3 3 2 3 3 4 4 3 3 2 4 4 3 2 3 3 1 1 3 4 4 4 4 5 5 5 5 6 6 6
3 1 3 5 5 3 4 4 4 5 4 2 3 4 4 6 4 5 6 7 7 5 4 5 5 4 4 5 6 7 6 5 6 6 4 4 3 4 5 6 5 4 4 4 4 4 4 3 1 0 2 1 1 1 3 4 3 3 2 1 3 3 2 2 3 3 4 5 5 5 5 3 3 2 1 3 4 4 3 3 3 4 4 4 5 5 5
3 4 3 3 2 1 1 1 4 2 1 4 4 3 3 4 6 6 7 6 6 6 5 5 7 7 6 5 5 4 4 4 5 4 6 8 7 5 5 7 5 4 6 6 6 5 5 3 2 3 3 1 0 2 2 3 3 2 1 2 3 3 3 3 2 2 2 2 5 5 4 4 4 3 2 3 5 4 2 2 3 3 4 4 4 4 4
2 2 0 0 1 1 2 1 2 3 2 1 3 4 4 4 5 4 4 4 6 6 6 5 5 5 5 4 4 4 4 4 4 4 4 6 5 6 7 6 4 6 8 6 5 5 5 4 4 4 3 2 1 2 2 2 2 2 2 1 1 1 1 1 1 0 1 3 5 6 5 5 5 3 3 2 3 5 3 3 4 4 4 4 4 4 4
2 2 2 1 1 1 4 5 4 3 3 4 4 4 3 4 4 5 5 5 5 6 7 6 5 5 5 4 3 4 4 4 5 6 6 6 5 6 7 6 6 6 8 6 5 6 6 5 4 5 5 5 4 1 0 1 2 1 2 1 1 1 0 0 1 2 3 4 6 6 6 5 5 5 4 4 2 4 3 3 4 4 4 3 3 3 3
3 3 2 1 2 4 5 6 4 5 5 3 4 4 4 4 4 4 5 5 6 7 5 5 5 6 5 4 5 6 6 7 7 7 6 5 5 6 4 6 6 6 6 7 6 6 6 5 6 7 6 5 4 1 1 1 1 1 2 2 2 1 1 0 1 1 1 3 3 4 4 4 4 4 4 3 2 3 6 4 4 4 4 3 2 3 2
4 3 2 1 2 5 7 7 6 4 3 3 3 4 4 4 4 4 4 4 5 5 6 6 6 7 7 7 6 5 3 2 4 7 8 9 8 7 5 7 5 5 7 8 4 5 5 6 6 6 5 5 2 0 1 2 2 2 1 2 3 3 2 1 0 1 2 3 3 4 5 4 4 3 4 5 4 3 4 5 4 3 3 4 3 2 1
4 4 3 3 4 5 5 4 3 2 1 2 3 5 5 4 4 4 4 4 5 5 5 5 6 7 7 8 7 5 4 2 1 1 2 2 1 3 7 8 6 7 6 6 5 5 5 5 5 6 6 4 2 1 2 3 4 4 2 3 3 3 4 4 3 4 3 4 3 3 4 4 5 4 3 4 5 4 4 5 5 4 3 3 2 2 2
4 5 4 3 4 3 2 2 3 4 4 6 6 6 5 4 4 4 3 3 3 3 4 4 5 5 6 6 5 6 7 7 4 4 1 3 3 4 6 5 5 6 6 5 5 5 7 7 7 7 7 5 1 2 3 5 5 4 4 5 5 6 6 6 4 5 4 4 5 5 5 4 4 4 4 5 4 4 4 4 4 3 2 3 4 3 3
4 5 5 3 2 1 1 2 2 4 5 5 5 4 4 4 4 4 2 2 2 1 1 1 2 3 3 4 5 7 6 6 7 7 6 6 6 6 6 6 7 7 5 4 4 4 5 6 6 6 5 3 1 2 4 3 3 2 4 4 4 3 4 5 5 6 6 6 5 5 5 5 5 5 5 4 4 4 4 4 3 3 2 2 4 3 3
2 2 3 3 3 3 3 2 2 3 2 2 4 4 5 5 5 6 5 3 3 3 1 0 1 1 0 2 2 1 1 3 2 4 7 7 5 5 6 6 5 6 6 6 4 3 4 6 6 5 3 2 3 2 1 3 4 4 4 5 3 2 2 3 5 6 5 5 5 5 5 5 5 5 4 4 4 3 4 4 4 3 4 3 3 3 3
2 2 3 3 4 4 3 3 3 3 2 3 4 4 4 7 7 5 5 5 3 3 4 4 2 2 3 2 1 3 4 1 2 5 7 6 6 6 6 6 6 6 5 5 5 5 3 3 3 4 4 4 3 2 3 4 5 4 4 4 4 3 3 4 4 6 6 6 5 5 5 5 4 5 5 5 4 5 4 4 3 3 3 3 4 4 3
3 3 3 3 4 4 3 3 2 3 2 2 5 4 2 3 3 2 3 3 3 4 4 4 4 5 3 3 4 2 2 6 5 4 5 6 6 6 5 6 5 6 6 6 6 5 4 4 4 4 5 4 4 3 5 5 5 4 4 3 4 3 3 5 5 5 5 6 6 5 5 5 5 5 4 4 4 4 4 3 3 3 4 5 4 4 4
Wind_Direction
360 3 0 63 68 46 93 100 111 83 65 72 83 289 272 45 162 170 165 138 111 111 92 94 69 62 71 74 64 69 77 68 63 59 56 52 52 53 53 51 52 56 55 49 45 40 32 28 34 54 63 47 32 19 15 33 62 103 124 123 122 124 135 139 136 142 141 153 159 144 139 130 130 147 150 147 145 151 154 159 165 166 163 155 143 148 159
33 21 0 323 96 92 63 44 51 85 86 83 96 77 66 81 73 104 114 93 79 71 73 74 71 68 75 74 69 63 63 66 67 66 57 53 50 48 48 48 50 49 47 47 44 43 37 38 39 37 45 94 104 108 83 52 43 10 70 89 99 107 119 124 123 126 136 149 157 145 144 134 113 113 124 136 144 152 157 161 160 154 147 153 150 153 154
38 12 6 358 91 94 82 33 28 26 81 73 75 94 86 86 71 93 95 95 82 35 81 104 81 75 80 66 55 50 55 60 66 66 61 54 50 47 44 45 47 48 45 43 42 40 36 33 31 38 46 120 146 150 148 119 126 22 33 77 84 100 109 111 112 115 115 110 120 149 140 99 112 104 117 129 135 142 146 152 154 154 154 154 161 162 162
350 356 5 320 116 80 65 29 7 354 6 84 4 77 303 120 133 118 107 100 120 127 65 83 75 68 56 59 57 49 47 54 67 69 65 60 54 48 43 43 40 38 38 36 36 36 34 31 32 27 37 72 78 65 76 128 161 144 150 115 98 97 107 104 112 122 119 127 149 182 142 136 132 123 102 111 123 137 148 153 159 155 162 167 164 168 166
334 307 320 287 273 52 28 1 332 321 355 101 79 52 54 74 120 135 137 162 128 138 144 90 66 89 78 57 64 65 58 52 63 67 64 65 59 52 45 40 38 37 33 30 32 34 33 30 33 29 44 57 56 67 64 65 56 27 14 23 42 59 78 104 119 124 132 141 128 151 153 119 101 109 110 118 134 140 162 168 153 164 174 165 168 168 165
188 310 342 314 43 59 16 314 313 262 276 120 84 46 43 24 67 86 82 109 119 115 108 101 95 80 88 102 82 78 72 49 59 67 70 67 68 67 59 51 45 40 34 28 29 32 31 29 31 37 47 55 58 57 54 48 60 70 64 53 54 54 44 41 56 86 120 107 112 146 162 163 127 133 139 150 152 136 131 143 167 170 171 173 166 172 177
172 131 60 50 62 107 216 308 354 19 49 73 90 71 70 87 90 100 104 106 96 93 84 98 111 109 101 84 85 70 71 89 72 63 60 58 53 59 57 47 39 41 44 41 36 33 24 20 20 39 47 46 57 55 57 59 55 56 50 45 39 41 49 58 58 36 32 50 134 170 184 181 173 164 158 159 168 164 151 160 170 175 178 181 183 174 176
70 102 141 123 227 122 327 310 336 333 38 32 75 62 41 70 107 106 94 107 115 119 115 114 119 111 109 89 61 57 59 59 100 86 59 53 53 54 53 58 44 42 32 32 38 42 33 25 20 34 48 42 53 59 52 55 49 45 45 44 41 39 38 31 61 89 76 43 32 15 343 274 202 183 148 158 169 177 144 143 146 141 145 168 178 183 181
130 121 63 95 123 109 348 0 355 16 352 350 38 114 61 39 138 123 125 121 121 118 120 127 125 129 103 76 51 47 70 83 71 90 95 85 65 72 70 73 64 51 45 41 34 46 43 30 21 25 33 50 53 50 54 49 50 44 42 41 34 35 34 29 36 58 113 107 55 50 38 27 348 323 293 205 172 169 161 171 169 179 190 190 199 191 182
109 128 103 111 150 174 192 233 271 231 209 232 243 109 59 49 77 140 131 136 141 136 141 147 154 159 77 66 58 7 63 75 94 87 93 90 88 72 73 69 65 55 54 57 40 52 58 46 16 10 33 47 52 50 47 45 46 44 43 40 30 32 31 28 32 32 33 37 60 66 39 1 323 310 312 323 300 199 176 180 196 208 197 193 194 194 184
56 63 117 135 156 157 165 259 266 273 222 224 168 67 98 134 136 153 132 133 151 154 155 164 180 74 86 121 161 189 137 126 95 102 96 103 100 99 86 77 73 59 39 38 36 42 56 55 24 18 29 42 48 49 42 37 37 36 30 25 25 24 24 26 30 36 33 31 26 25 16 355 341 310 258 238 269 270 234 196 219 217 200 194 202 200 201
33 113 88 113 138 187 299 278 287 288 313 270 77 115 207 168 142 151 145 143 159 168 167 149 87 112 129 155 196 189 178 163 168 114 119 87 47 35 45 57 66 58 45 46 43 36 30 34 38 52 44 46 47 43 39 38 36 27 18 14 15 23 25 29 33 34 34 39 37 35 24 16 9 9 357 351 323 289 261 200 226 249 236 214 204 217 207
90 97 79 78 325 287 278 292 296 297 267 135 171 211 181 166 136 140 151 143 150 137 113 103 87 19 90 127 135 139 147 126 102 83 78 82 75 66 59 40 49 72 66 60 51 40 36 29 25 26 45 51 44 38 36 38 34 21 9 10 17 24 29 31 29 29 29 29 27 27 20 14 5 10 17 5 354 353 317 307 261 234 232 234 218 234 222
67 59 90 143 198 243 323 301 301 275 72 137 213 250 286 122 96 88 98 94 94 93 93 94 90 95 92 95 99 100 98 96 88 81 73 62 52 48 52 56 57 61 63 62 59 47 31 32 32 38 50 55 50 45 43 38 20 6 18 19 21 22 26 29 28 26 25 27 30 24 18 12 11 7 2 4 11 359 327 276 250 234 216 217 218 221 226
44 47 83 54 80 295 346 307 342 13 107 285 21 92 62 88 95 90 81 92 100 101 92 90 101 97 85 89 92 95 92 84 76 71 66 61 55 46 39 34 32 52 57 55 53 57 39 35 35 46 65 66 60 54 50 25 0 15 21 26 28 26 23 22 21 23 24 26 24 20 16 7 6 7 359 356 351 1 10 351 325 301 250 212 207 216 228
139 87 84 112 289 297 322 37 120 331 90 126 100 90 83 65 82 95 93 80 89 101 106 107 98 97 100 85 89 87 86 90 86 79 76 77 68 53 42 45 39 53 65 58 52 37 36 41 42 38 52 52 46 42 25 350 14 23 25 23 26 29 24 18 15 16 16 21 26 20 18 9 6 5 358 350 346 356 354 3 352 317 293 350 315 263 230
120 114 103 112 302 5 4 56 81 70 59 64 77 80 77 81 60 73 93 96 89 91 100 96 98 91 91 103 98 94 89 80 77 76 80 89 88 78 67 45 45 67 79 69 52 34 19 22 29 36 38 47 41 34 15 18 16 10 11 25 30 25 18 14 12 8 14 17 17 19 16 15 16 9 2 357 358 345 348 357 348 341 304 284 221 210 264
81 68 95 123 64 59 62 59 75 82 77 65 70 76 81 61 67 63 85 89 91 89 87 92 80 94 106 97 92 91 89 85 74 69 57 45 46 39 31 25 32 47 59 58 51 39 32 34 45 51 54 59 61 46 35 33 29 33 32 26 23 19 21 25 22 20 21 13 12 11 10 11 10 6 2 358 359 351 354 344 336 328 322 310 278 243 191
88 87 92 91 93 84 78 83 80 79 80 83 79 77 78 81 73 69 65 77 77 76 76 81 90 74 83 96 93 96 93 83 76 62 57 45 52 69 49 354 20 25 35 41 45 51 47 32 44 48 55 56 61 53 48 43 43 42 43 42 40 37 37 32 28 27 28 16 7 4 5 2 4 2 360 2 1 2 5 0 353 340 332 328 319 275 249
79 127 136 113 100 94 101 99 93 91 90 89 89 93 94 97 99 100 99 91 84 90 98 101 93 79 78 97 91 90 89 87 84 79 67 54 34 11 22 18 30 42 53 59 51 54 47 35 44 48 48 44 42 47 46 47 48 49 46 42 45 44 44 39 34 26 22 13 13 4 359 359 357 355 358 2 2 358 351 356 345 335 328 320 307 300 296
83 86 84 96 79 58 44 76 82 94 105 107 101 104 109 109 103 97 89 94 102 94 105 96 90 79 72 95 104 99 98 87 79 81 75 47 46 53 59 55 60 63 60 56 55 56 40 26 42 47 44 36 32 33 30 37 48 53 45 39 45 46 43 41 30 18 17 10 4 358 347 348 347 337 336 342 345 327 319 47 305 295 303 289 279 283 280
136 166 168 146 109 122 83 91 107 98 85 93 90 82 82 92 98 97 86 63 65 87 99 98 92 93 90 91 97 100 112 126 117 77 65 70 76 65 50 62 64 63 58 66 59 53 28 27 42 48 45 40 36 33 31 27 40 55 42 37 38 35 39 45 27 21 9 359 351 353 353 350 345 337 330 313 304 310 305 316 289 255 235 258 290 303 286
179 166 155 145 133 125 172 172 127 105 91 92 94 99 104 103 115 116 103 91 78 78 67 84 96 98 100 107 106 103 103 89 79 89 98 93 85 75 64 66 54 64 57 59 60 41 10 28 44 46 45 34 33 29 34 31 41 56 56 41 29 17 22 21 10 14 4 354 345 343 349 351 354 347 334 333 326 314 307 309 306 290 270 272 289 287 250
97 115 127 120 107 122 131 117 104 99 112 107 104 105 105 115 116 107 107 121 121 104 85 73 97 106 101 106 106 116 96 69 80 89 97 103 108 107 88 91 76 57 40 32 39 38 33 47 48 42 37 22 24 22 27 27 30 47 57 53 24 358 349 350 358 4 356 0 350 2 350 349 348 346 341 335 329 329 337 330 320 317 269 312 329 335 331
134 125 106 100 105 97 96 106 111 119 118 112 114 116 117 106 107 117 113 113 118 117 108 85 69 100 107 128 112 113 112 90 100 108 114 117 126 113 112 94 77 68 54 62 61 58 56 55 51 41 38 10 8 17 14 11 23 33 39 34 15 349 348 351 4 3 5 7 359 0 346 342 341 343 349 339 333 327 327 333 329 322 310 340 5 345 343
95 83 85 86 86 86 102 86 54 62 94 114 110 86 76 114 122 113 126 132 130 128 121 129 112 98 121 131 139 110 67 85 106 106 106 107 93 81 87 111 108 83 81 73 63 55 51 49 51 39 32 354 8 11 355 354 12 26 13 1 340 333 333 357 10 1 356 353 343 334 323 329 338 341 337 331 318 309 321 331 339 342 337 330 355 349 356
82 97 88 65 62 50 77 116 162 169 102 73 96 102 85 58 83 106 80 94 138 140 139 148 144 127 70 85 77 90 121 125 91 81 97 108 118 148 179 146 88 94 99 84 63 46 48 41 34 25 0 341 11 353 344 341 0 354 358 348 348 338 353 9 26 357 342 348 335 335 352 0 358 349 336 330 313 315 321 320 316 317 310 317 328 355 344
92 90 103 120 128 125 135 137 135 123 112 116 108 96 84 76 79 95 110 116 134 120 111 133 118 107 77 75 103 77 65 82 90 82 70 60 16 341 36 64 81 93 89 86 75 53 43 44 0 327 314 278 248 297 294 333 351 342 333 332 337 342 337 357 359 349 344 337 342 359 2 348 337 336 341 343 340 328 313 306 303 303 313 310 300 304 326
102 101 103 125 155 162 145 120 89 85 80 95 110 109 95 86 82 80 102 141 139 121 132 164 98 105 113 114 111 109 109 113 113 112 123 100 63 53 67 85 88 92 99 103 100 44 12 331 316 316 291 281 274 284 283 319 327 310 308 318 330 323 323 336 347 344 339 344 3 0 351 355 354 358 353 347 338 332 330 321 315 309 296 301 322 327 331
137 115 103 108 110 103 91 86 110 129 142 147 119 124 129 117 97 106 118 208 179 156 162 91 85 102 114 106 111 128 133 141 147 146 131 108 69 48 53 99 88 61 56 48 22 6 308 295 308 310 290 278 272 269 296 299 296 303 299 289 285 267 299 319 331 349 348 351 348 355 11 7 358 358 348 343 338 334 330 328 323 320 317 321 324 305 306
133 126 121 113 86 84 107 131 141 155 153 145 127 116 89 95 121 97 79 115 124 114 107 117 122 121 108 119 133 125 124 130 134 129 116 99 74 53 35 65 104 109 78 22 318 305 304 313 324 309 275 268 269 286 278 285 289 298 303 307 311 303 300 337 328 309 301 354 7 26 4 4 6 0 355 347 342 337 336 334 330 326 317 319 341 356 353
119 101 82 65 77 93 80 74 106 149 147 126 115 134 149 136 159 158 151 143 140 133 123 119 127 129 139 144 125 115 119 128 121 108 106 98 82 56 65 94 104 122 248 268 295 281 312 6 334 309 309 299 295 282 280 282 285 298 276 273 306 321 327 355 33 335 354 58 44 25 4 14 10 6 354 348 344 339 338 336 331 328 325 335 350 357 331
114 91 80 95 84 70 70 73 106 144 159 175 181 172 178 173 162 161 162 126 103 111 121 135 145 149 153 141 128 124 131 125 106 98 99 91 52 351 283 67 129 206 256 262 239 252 29 319 298 310 330 329 304 302 278 266 267 267 292 321 304 294 345 52 100 117 84 71 52 14 19 38 14 4 353 348 344 341 337 332 331 328 333 335 339 334 348
156 164 172 169 147 144 129 106 112 133 160 179 171 159 162 179 175 154 142 129 130 134 147 161 166 162 159 161 139 122 121 116 117 134 175 201 257 284 298 291 276 259 251 252 252 335 351 304 295 305 324 314 302 316 7 72 239 266 302 329 356 21 35 82 107 118 128 129 147 24 53 42 33 15 2 354 346 342 332 331 331 330 336 343 337 332 337
145 145 141 140 139 142 141 130 131 145 146 144 162 181 186 181 162 159 125 131 148 171 165 150 155 163 148 118 100 111 137 172 193 188 207 223 245 253 297 354 0 4 254 278 312 319 267 266 276 295 313 305 295 308 334 4 64 52 357 36 37 39 53 122 134 155 159 184 139 62 30 36 30 23 5 7 359 339 335 341 339 342 348 348 342 341 346
117 112 112 121 131 135 127 132 138 154 159 159 168 172 178 174 132 122 131 148 152 141 147 158 157 140 116 119 130 161 180 210 205 215 236 243 242 246 15 8 334 327 311 295 279 245 255 271 285 295 302 296 292 302 309 312 327 348 312 47 81 73 43 94 158 194 165 121 105 97 47 57 46 21 21 7 351 347 355 349 349 354 358 354 350 357 360
108 116 123 130 130 114 118 131 140 139 157 164 169 180 192 168 164 160 138 144 153 163 162 155 134 129 172 199 192 192 192 188 194 208 223 246 239 154 167 249 276 261 253 244 266 243 261 270 276 289 294 264 264 263 271 293 288 253 281 23 93 155 95 51 234 181 133 135 133 116 41 34 33 37 28 9 8 358 355 360 2 3 4 7 8 14 17
138 138 145 145 149 129 130 156 153 139 146 157 179 184 186 185 175 147 158 163 172 173 170 164 166 178 170 147 136 176 227 231 218 225 239 242 205 182 227 192 240 219 202 223 240 201 228 269 293 311 315 294 269 272 297 347 4 352 351 318 294 319 82 193 287 266 142 144 120 107 109 97 79 39 22 24 27 10 0 7 14 15 13 15 19 24 27
77 95 117 146 130 128 114 90 129 153 150 161 186 206 216 165 153 148 166 179 181 167 165 174 145 126 145 162 202 226 242 233 220 208 209 223 219 184 218 217 219 203 205 227 223 234 256 264 297 311 305 289 277 305 323 335 341 339 331 305 294 284 284 246 247 252 172 135 130 142 130 101 71 48 51 61 42 20 15 17 16 20 23 21 21 23 33
179 180 169 145 144 154 121 102 115 155 187 164 162 195 201 162 157 159 164 171 189 182 175 148 151 170 189 201 207 224 228 222 210 196 203 191 171 221 277 285 260 248 249 262 263 239 236 267 290 342 327 168 297 310 312 340 336 338 311 264 238 224 237 235 210 219 195 152 142 141 117 110 103 112 111 87 67 43 30 23 25 26 30 34 34 31 33
337 355 156 153 176 168 148 134 137 163 179 210 205 195 171 170 171 143 165 181 196 191 195 169 174 200 204 207 214 228 226 206 200 203 172 141 175 204 221 249 251 218 209 213 236 260 248 224 219 222 260 259 239 345 332 329 340 329 349 58 111 114 128 131 145 190 183 169 160 156 149 137 127 118 130 109 97 84 56 40 33 35 38 40 38 40 44
28 18 15 42 43 340 273 206 143 123 172 195 226 217 193 168 165 187 184 177 177 188 200 204 195 197 209 211 220 226 225 208 198 188 173 182 191 189 205 248 237 212 199 197 225 241 257 257 252 225 234 251 262 329 322 317 313 328 282 210 159 154 151 153 153 198 234 206 166 146 141 143 141 151 172 133 114 104 81 62 59 56 50 48 43 35 38
110 71 70 209 190 9 33 4 199 196 196 216 197 195 176 190 187 197 164 167 176 189 204 218 225 226 214 192 168 180 212 207 199 200 206 234 215 188 190 231 218 199 192 194 205 220 232 245 231 230 211 206 211 314 343 350 343 316 282 250 212 177 165 157 194 45 67 98 115 138 149 159 153 162 157 152 146 126 113 81 59 59 65 68 53 46 43
175 138 131 159 205 221 270 267 266 261 210 240 229 216 164 166 174 177 172 172 188 194 198 213 216 214 220 212 193 194 214 211 215 200 197 251 270 238 221 230 221 194 183 193 200 216 221 233 224 217 206 202 180 235 5 15 328 295 280 332 344 339 339 36 32 69 109 117 137 152 163 167 165 168 162 165 160 108 75 76 80 70 57 51 58 61 54
215 194 188 192 208 211 224 239 234 220 219 224 211 224 205 175 179 180 175 170 181 199 199 193 198 206 220 208 211 220 219 199 192 168 174 218 233 257 217 192 194 179 191 193 200 209 219 216 209 199 193 184 189 198 24 322 317 247 214 231 242 289 327 55 47 31 115 110 105 117 131 152 164 164 165 166 176 157 135 135 129 120 104 89 78 79 74
242 253 250 273 253 241 232 223 226 219 219 196 197 229 231 207 188 191 188 191 204 207 202 195 195 205 203 210 225 235 237 209 194 191 191 182 189 218 174 169 184 186 190 182 195 201 204 193 191 183 190 194 178 127 313 301 289 279 211 193 236 243 222 231 161 120 126 124 123 119 121 121 123 140 148 147 140 138 124 123 121 126 128 131 135 152 131
231 254 234 213 235 243 248 251 255 223 137 130 188 227 245 234 214 195 200 204 215 233 226 208 205 211 201 196 191 202 203 157 52 247 238 245 137 144 162 171 182 183 166 178 192 185 179 182 187 189 200 206 199 266 275 284 276 267 221 175 198 223 223 224 177 156 159 137 133 132 131 132 132 130 123 116 120 128 136 137 137 143 140 129 120 100 82
230 238 257 247 246 250 257 259 235 241 227 214 216 223 235 233 221 219 196 193 209 229 243 250 248 232 211 206 207 198 178 162 185 254 212 186 179 149 157 177 185 180 177 187 187 189 180 182 193 197 206 197 184 275 294 282 271 239 199 196 198 209 214 218 177 152 157 148 144 134 132 129 132 132 136 135 133 128 124 124 133 136 155 147 110 92 97
225 240 252 268 300 342 322 263 236 229 225 216 185 206 214 208 228 254 250 205 210 275 284 243 233 256 276 269 233 211 191 178 165 201 202 175 167 169 181 181 180 169 163 175 187 197 196 198 204 215 223 207 215 249 259 239 213 176 162 170 173 191 197 191 169 156 157 163 164 152 150 152 157 153 150 146 143 139 132 133 142 147 149 115 101 99 107
236 226 253 258 249 230 190 169 195 223 237 238 249 220 186 174 201 244 251 239 192 186 195 131 77 13 233 188 179 320 342 252 208 140 150 170 177 169 171 174 181 183 178 184 199 223 212 203 218 227 226 224 240 257 226 196 174 155 159 162 166 175 158 139 134 146 155 155 158 150 150 154 157 156 151 148 144 139 138 142 151 134 101 91 109 117 117
217 180 202 211 207 208 196 185 191 198 243 230 196 206 183 173 196 213 211 220 200 207 237 249 249 205 134 119 168 150 135 119 203 169 155 170 174 178 177 180 182 187 192 195 207 221 227 214 214 224 230 222 236 218 207 196 169 172 171 185 190 177 149 139 140 148 155 160 159 154 151 151 151 150 152 152 152 144 141 146 136 116 117 126 127 128 131
234 245 259 241 234 234 230 241 226 229 241 181 146 140 185 193 189 245 292 263 196 213 235 260 280 254 226 162 135 147 170 137 144 178 170 164 174 179 184 177 183 192 192 200 214 225 228 219 221 229 227 219 220 208 226 209 163 171 182 178 167 187 164 157 154 149 152 155 152 154 159 161 157 150 149 146 148 145 145 147 145 143 137 139 143 141 138